Bloomington, IL

1:17 PM CDT on July 22, 2017 (GMT -0500)
Central Ill Regional

Weather History for KBMI - July, 2014

Change the Weather History Date:

Friday, July 25, 2014

  Actual Average Record
Temperature  
Mean Temperature 62 °F -  
Max Temperature 68 °F 85 °F 99 °F (2012)
Min Temperature 55 °F 63 °F 52 °F (2013)
Degree Days  
Heating Degree Days 4    
Growing Degree Days 12 (Base 50)    
Moisture  
Dew Point 57 °F    
Average Humidity 83    
Maximum Humidity 94    
Minimum Humidity 73    
Precipitation  
Precipitation 0.09 in - - ()
Sea Level Pressure  
Sea Level Pressure 30.00 in    
Wind  
Wind Speed 9 mph (SSE)    
Max Wind Speed 17 mph    
Max Gust Speed -    
Visibility 10 miles    
Events Rain    
Averages and records for this station are not official NWS values.
T = Trace of Precipitation, MM = Missing Value Source: NWS Daily Summary

Daily Weather History Graph

Daily Weather History Graph

Search for Another Location

Airport or City:

Trip Planner

Search our weather history database for the weather conditions in past years. The results will help you decide how hot, cold, wet, or windy it might be!

Date:

Astronomy

Jul. 25, 2014 Rise Set
Actual Time 5:46 AM CDT 8:17 PM CDT
Civil Twilight 5:15 AM CDT 8:48 PM CDT
Nautical Twilight 4:36 AM CDT 9:27 PM CDT
Astronomical Twilight 3:52 AM CDT 10:10 PM CDT
Moon 4:45 AM CDT (7/25) 7:14 PM CDT (7/25)
Length of Visible Light 15h 33m
Length of Day
14h 30m
Waning Crescent, 1% of the Moon is Illuminated
Jul 25
Waning Crescent
Jul 26
New
Aug 3
First Quarter
Aug 10
Full
Aug 17
Last Quarter

Hourly Weather History & Observations

Time (CDT) Temp. Dew Point Humidity Pressure Visibility Wind Dir Wind Speed Gust Speed Precip Events Conditions
12:56 AM 59.0 °F 52.0 °F 78% 30.06 in 10.0 mi ESE 5.8 mph - N/A   Clear
1:56 AM 56.8 °F 52.9 °F 87% 30.06 in 10.0 mi SE 8.1 mph - N/A   Partly Cloudy
2:56 AM 56.8 °F 52.0 °F 84% 30.07 in 10.0 mi SE 8.1 mph - N/A   Clear
3:56 AM 55.9 °F 52.0 °F 87% 30.04 in 10.0 mi ESE 10.4 mph - N/A   Clear
4:56 AM 55.9 °F 52.0 °F 87% 30.04 in 10.0 mi SE 8.1 mph - N/A   Clear
5:56 AM 55.9 °F 52.0 °F 87% 30.06 in 10.0 mi SE 4.6 mph - N/A   Clear
6:56 AM 57.9 °F 54.0 °F 87% 30.09 in 10.0 mi SSE 3.5 mph - N/A   Mostly Cloudy
7:56 AM 59.0 °F 54.0 °F 83% 30.11 in 10.0 mi South 4.6 mph - N/A   Mostly Cloudy
8:56 AM 59.9 °F 54.9 °F 83% 30.09 in 10.0 mi South 6.9 mph - N/A   Clear
9:56 AM 61.0 °F 55.9 °F 83% 30.07 in 10.0 mi SSW 10.4 mph - N/A   Clear
10:56 AM 63.0 °F 57.9 °F 84% 30.04 in 10.0 mi SSW 11.5 mph - 0.00 in   Clear
11:56 AM 63.9 °F 57.9 °F 81% 30.06 in 10.0 mi SW 10.4 mph - 0.00 in Rain Light Rain
12:28 PM 62.6 °F 57.2 °F 82% 30.07 in 3.0 mi SW 12.7 mph - 0.03 in Rain Rain
12:56 PM 61.0 °F 59.0 °F 93% 30.01 in 5.0 mi South 10.4 mph - 0.09 in Rain Light Rain
1:10 PM 62.6 °F 60.8 °F 94% 30.02 in 10.0 mi SSW 8.1 mph - 0.00 in   Scattered Clouds
1:56 PM 64.9 °F 59.9 °F 84% 29.96 in 10.0 mi SSW 17.3 mph - 0.00 in   Scattered Clouds
2:38 PM 64.4 °F 60.8 °F 88% 29.94 in 10.0 mi SSW 13.8 mph - 0.00 in Rain Light Rain
2:56 PM 63.9 °F 59.9 °F 87% 29.94 in 10.0 mi SSW 12.7 mph - 0.00 in Rain Light Rain
3:35 PM 66.2 °F 60.8 °F 83% 29.94 in 10.0 mi South 12.7 mph - 0.00 in   Scattered Clouds
3:48 PM 68.0 °F 60.8 °F 78% 29.95 in 10.0 mi South 11.5 mph - 0.00 in   Mostly Cloudy
3:56 PM 68.0 °F 59.0 °F 73% 29.94 in 10.0 mi SSW 15.0 mph - 0.00 in   Mostly Cloudy
4:56 PM 68.0 °F 59.9 °F 75% 29.93 in 10.0 mi South 11.5 mph - N/A   Mostly Cloudy
5:56 PM 68.0 °F 59.9 °F 75% 29.95 in 10.0 mi East 6.9 mph - 0.00 in   Overcast
6:56 PM 66.9 °F 59.9 °F 78% 29.95 in 10.0 mi SE 8.1 mph - N/A   Mostly Cloudy
7:56 PM 66.9 °F 59.9 °F 78% 29.95 in 10.0 mi SE 6.9 mph - N/A   Mostly Cloudy
8:03 PM 66.2 °F 60.8 °F 83% 29.97 in 10.0 mi SE 5.8 mph - N/A   Mostly Cloudy
8:56 PM 65.8 °F 59.0 °F 79% 29.95 in 10.0 mi SE 9.2 mph - N/A   Overcast
9:56 PM 65.8 °F 59.0 °F 79% 29.94 in 10.0 mi SE 10.4 mph - N/A   Mostly Cloudy
10:56 PM 65.8 °F 59.0 °F 79% 29.94 in 10.0 mi SSE 11.5 mph - N/A   Mostly Cloudy
11:56 PM 65.8 °F 59.9 °F 81% 29.93 in 10.0 mi SSE 12.7 mph - N/A   Mostly Cloudy